Previsão horária em Centralnaya

Hoje, 30 Julho, Sexta-feira

Tempo Temperatura Precipitação Vento Pressão Humidade
00:00 +22°C° 0 mm 1 m/s 741 mmHg 77%
01:00 +21°C° 0 mm 1 m/s 741 mmHg 78%
02:00 +21°C° 0 mm 1 m/s 741 mmHg 80%
03:00 +21°C° 0 mm 1 m/s 741 mmHg 81%
04:00 +21°C° 0 mm 1 m/s 741 mmHg 80%
05:00 +22°C° 0 mm 1 m/s 741 mmHg 79%
06:00 +22°C° 0 mm 1 m/s 741 mmHg 78%
07:00 +24°C° 0 mm 2 m/s 741 mmHg 70%
08:00 +26°C° 0 mm 2 m/s 741 mmHg 62%
09:00 +28°C° 0 mm 2 m/s 741 mmHg 54%
10:00 +29°C° 0 mm 3 m/s 740 mmHg 50%
11:00 +31°C° 0 mm 3 m/s 740 mmHg 46%
12:00 +33°C° 0 mm 4 m/s 740 mmHg 41%
13:00 +33°C° 0.1 mm 4 m/s 740 mmHg 42%
14:00 +32°C° 0.1 mm 4 m/s 739 mmHg 44%
15:00 +32°C° 0.1 mm 4 m/s 739 mmHg 45%
16:00 +29°C° 2 mm 4 m/s 738 mmHg 57%
17:00 +26°C° 2 mm 3 m/s 738 mmHg 68%
18:00 +24°C° 2 mm 3 m/s 738 mmHg 80%
19:00 +23°C° 0.5 mm 2 m/s 738 mmHg 84%
20:00 +21°C° 0.5 mm 2 m/s 739 mmHg 88%
21:00 +21°C° 0.5 mm 1 m/s 739 mmHg 93%
22:00 +20°C° 0 mm 2 m/s 739 mmHg 93%
23:00 +20°C° 0 mm 2 m/s 739 mmHg 93%

Amanhã, 31 Julho, Sábado

Tempo Temperatura Precipitação Vento Pressão Humidade
00:00 +20°C° 0 mm 3 m/s 740 mmHg 93%
01:00 +20°C° 0 mm 3 m/s 740 mmHg 94%
02:00 +19°C° 0 mm 3 m/s 740 mmHg 95%
03:00 +19°C° 0 mm 3 m/s 740 mmHg 95%
04:00 +19°C° 0 mm 3 m/s 740 mmHg 93%
05:00 +19°C° 0 mm 3 m/s 740 mmHg 91%
06:00 +19°C° 0 mm 3 m/s 741 mmHg 89%
07:00 +20°C° 0 mm 4 m/s 741 mmHg 78%
08:00 +22°C° 0 mm 5 m/s 741 mmHg 67%
09:00 +23°C° 0 mm 5 m/s 742 mmHg 55%
10:00 +26°C° 0 mm 5 m/s 742 mmHg 50%
11:00 +27°C° 0 mm 5 m/s 742 mmHg 44%
12:00 +28°C° 0 mm 6 m/s 742 mmHg 38%
13:00 +29°C° 0 mm 6 m/s 742 mmHg 36%
14:00 +30°C° 0 mm 6 m/s 742 mmHg 34%
15:00 +32°C° 0 mm 7 m/s 742 mmHg 33%
16:00 +30°C° 0 mm 6 m/s 742 mmHg 35%
17:00 +30°C° 0 mm 6 m/s 742 mmHg 37%
18:00 +29°C° 0 mm 5 m/s 742 mmHg 39%
19:00 +27°C° 0 mm 4 m/s 742 mmHg 44%
20:00 +25°C° 0 mm 3 m/s 743 mmHg 49%
21:00 +23°C° 0 mm 2 m/s 743 mmHg 53%
22:00 +23°C° 0 mm 2 m/s 743 mmHg 55%
23:00 +21°C° 0 mm 2 m/s 744 mmHg 57%

Depois de amanhã, 1 Agosto, Domingo

Tempo Temperatura Precipitação Vento Pressão Humidade
00:00 +21°C° 0 mm 1 m/s 744 mmHg 59%
01:00 +20°C° 0 mm 2 m/s 744 mmHg 60%
02:00 +19°C° 0 mm 2 m/s 744 mmHg 61%
03:00 +19°C° 0 mm 2 m/s 744 mmHg 62%
04:00 +19°C° 0 mm 2 m/s 745 mmHg 63%
05:00 +19°C° 0 mm 2 m/s 745 mmHg 64%
06:00 +19°C° 0 mm 2 m/s 745 mmHg 65%
07:00 +23°C° 0 mm 2 m/s 745 mmHg 58%
08:00 +25°C° 0 mm 3 m/s 745 mmHg 51%
09:00 +27°C° 0 mm 3 m/s 746 mmHg 44%
10:00 +29°C° 0 mm 3 m/s 746 mmHg 41%
11:00 +30°C° 0 mm 3 m/s 745 mmHg 37%
12:00 +31°C° 0 mm 3 m/s 745 mmHg 34%
13:00 +33°C° 0 mm 3 m/s 745 mmHg 32%
14:00 +34°C° 0 mm 3 m/s 745 mmHg 30%
15:00 +34°C° 0 mm 3 m/s 745 mmHg 28%
16:00 +34°C° 0 mm 3 m/s 744 mmHg 31%
17:00 +33°C° 0 mm 3 m/s 744 mmHg 34%
18:00 +31°C° 0 mm 3 m/s 743 mmHg 37%
19:00 +30°C° 0 mm 3 m/s 743 mmHg 39%
20:00 +28°C° 0 mm 3 m/s 743 mmHg 41%
21:00 +27°C° 0 mm 3 m/s 743 mmHg 43%
22:00 +26°C° 0 mm 3 m/s 743 mmHg 44%
23:00 +26°C° 0 mm 3 m/s 743 mmHg 45%

2 Agosto, Segunda-feira

Tempo Temperatura Precipitação Vento Pressão Humidade
00:00 +25°C° 0 mm 3 m/s 743 mmHg 46%
01:00 +25°C° 0 mm 3 m/s 743 mmHg 48%
02:00 +24°C° 0 mm 3 m/s 743 mmHg 50%
03:00 +22°C° 0 mm 3 m/s 743 mmHg 51%
04:00 +22°C° 0 mm 3 m/s 743 mmHg 54%
05:00 +22°C° 0 mm 3 m/s 743 mmHg 56%
06:00 +22°C° 0 mm 3 m/s 743 mmHg 58%
07:00 +26°C° 0 mm 4 m/s 743 mmHg 54%
08:00 +28°C° 0 mm 5 m/s 743 mmHg 51%
09:00 +30°C° 0 mm 6 m/s 743 mmHg 47%
10:00 +32°C° 0 mm 6 m/s 743 mmHg 43%
11:00 +34°C° 0 mm 5 m/s 743 mmHg 38%
12:00 +35°C° 0 mm 5 m/s 743 mmHg 34%
13:00 +36°C° 0 mm 5 m/s 742 mmHg 31%
14:00 +37°C° 0 mm 5 m/s 742 mmHg 28%
15:00 +37°C° 0 mm 5 m/s 742 mmHg 25%
16:00 +36°C° 0 mm 5 m/s 741 mmHg 27%
17:00 +35°C° 0 mm 5 m/s 741 mmHg 30%
18:00 +34°C° 0 mm 4 m/s 741 mmHg 33%
19:00 +32°C° 0.1 mm 4 m/s 741 mmHg 40%
20:00 +28°C° 0.1 mm 3 m/s 741 mmHg 47%
21:00 +26°C° 0.1 mm 3 m/s 741 mmHg 55%
22:00 +26°C° 0 mm 3 m/s 741 mmHg 56%
23:00 +25°C° 0 mm 3 m/s 741 mmHg 57%

3 Agosto, Terça-feira

Tempo Temperatura Precipitação Vento Pressão Humidade
00:00 +25°C° 0 mm 3 m/s 741 mmHg 58%
01:00 +24°C° 0.1 mm 3 m/s 741 mmHg 61%
02:00 +24°C° 0.1 mm 2 m/s 740 mmHg 65%
03:00 +24°C° 0.1 mm 1 m/s 740 mmHg 68%
04:00 +24°C° 0.1 mm 3 m/s 740 mmHg 69%
05:00 +23°C° 0.1 mm 4 m/s 741 mmHg 70%
06:00 +23°C° 0.1 mm 5 m/s 741 mmHg 71%
07:00 +23°C° 0.3 mm 6 m/s 741 mmHg 74%
08:00 +23°C° 0.3 mm 6 m/s 741 mmHg 77%
09:00 +23°C° 0.3 mm 6 m/s 741 mmHg 80%
10:00 +22°C° 0.6 mm 5 m/s 742 mmHg 82%
11:00 +22°C° 0.6 mm 4 m/s 742 mmHg 84%
12:00 +21°C° 0.6 mm 2 m/s 743 mmHg 86%
13:00 +24°C° 0.1 mm 3 m/s 743 mmHg 79%
14:00 +25°C° 0.1 mm 4 m/s 743 mmHg 72%
15:00 +26°C° 0.1 mm 5 m/s 743 mmHg 65%
16:00 +25°C° 0.1 mm 5 m/s 743 mmHg 68%
17:00 +25°C° 0.1 mm 4 m/s 743 mmHg 70%
18:00 +24°C° 0.1 mm 3 m/s 743 mmHg 73%
19:00 +22°C° 0.1 mm 3 m/s 744 mmHg 77%
20:00 +21°C° 0.1 mm 3 m/s 744 mmHg 81%
21:00 +20°C° 0.1 mm 2 m/s 745 mmHg 85%
22:00 +19°C° 0 mm 2 m/s 745 mmHg 87%
23:00 +18°C° 0 mm 2 m/s 745 mmHg 88%

4 Agosto, Quarta-feira

Tempo Temperatura Precipitação Vento Pressão Humidade
00:00 +19°C° 0 mm 1 m/s 745 mmHg 89%
01:00 +17°C° 0 mm 2 m/s 745 mmHg 89%
02:00 +17°C° 0 mm 2 m/s 746 mmHg 88%
03:00 +16°C° 0 mm 2 m/s 746 mmHg 88%
04:00 +16°C° 0 mm 2 m/s 746 mmHg 86%
05:00 +17°C° 0 mm 2 m/s 747 mmHg 85%
06:00 +17°C° 0 mm 2 m/s 747 mmHg 83%
07:00 +19°C° 0 mm 3 m/s 747 mmHg 75%
08:00 +21°C° 0 mm 3 m/s 747 mmHg 66%
09:00 +22°C° 0 mm 3 m/s 748 mmHg 57%
10:00 +25°C° 0 mm 3 m/s 748 mmHg 52%
11:00 +26°C° 0 mm 3 m/s 748 mmHg 47%
12:00 +27°C° 0 mm 3 m/s 748 mmHg 42%
13:00 +28°C° 0 mm 3 m/s 748 mmHg 40%
14:00 +28°C° 0 mm 3 m/s 748 mmHg 37%
15:00 +28°C° 0 mm 3 m/s 748 mmHg 35%
16:00 +28°C° 0 mm 3 m/s 748 mmHg 36%
17:00 +28°C° 0 mm 3 m/s 748 mmHg 37%
18:00 +27°C° 0 mm 3 m/s 748 mmHg 38%
19:00 +25°C° 0 mm 3 m/s 748 mmHg 43%
20:00 +24°C° 0 mm 3 m/s 749 mmHg 48%
21:00 +21°C° 0 mm 3 m/s 749 mmHg 54%
22:00 +21°C° 0 mm 3 m/s 749 mmHg 55%
23:00 +20°C° 0 mm 2 m/s 749 mmHg 57%
Mostrar mais

Necessitamos do seu Consentimento

A Meteoprog e os seus Fornecedores de Serviços podem armazenar e aceder a dados pessoais como cookies, identificadores do dispositivo ou outras tecnologias semelhantes existentes no seu dispositivo e processar estes dados para personalizar conteúdos e anúncios, assim como funcionalidades nas redes sociais e análise de tráfego.

  • Armazenar e/ou aceder a informações no seu dispositivo

    Os cookies, identificadores do dispositivo ou outras informações podem ser armazenados ou acedidos no seu dispositivo, para os fins acima indicados.

  • Anúncios e conteúdos personalizados, medição de anúncios e conteúdos, dados sobre o público-alvo e desenvolvimento de produtos

    Os anúncios e os conteúdos podem ser personalizados com base num perfil. Podem ser adicionados dados adicionais para uma maior personalização dos anúncios e dos conteúdos. A eficácia dos anúncios e dos conteúdos pode ser medida. Podem ser obtidas informações sobre o público que visualizou os anúncios e os conteúdos. Estes dados podem ser usados para desenvolver ou melhorar sistemas, softwares ou a experiência do utilizador.

Ao clicar em "Eu concordo”, permitirá o uso de cookies, identificadores do dispositivo e web beacons mencionados ou outras tecnologias semelhantes. As configurações do navegador do seu dispositivo podem ser alteradas.

Para certos fins, podem ser invocados interesses legítimos ao invés de consentimento. Pode ler mais informação sobre este assunto na nossa Política de Privacidade e Cookies.